Simultaneous Nadir Overpasses (SNOs) Predictions

Prediction of SNOs between GOES-17 and METOP-A Satellite Orbit:

Table of predicted SNOs for the next 14.0 days since TLE Epoch: 9/7/2019
Index Date Time (GOES-17) GOES-17 Lat,Lon METOP-A Lat,Lon Distance(km) Time Diff (sec)
1 09/07/2019 06:23:47 -0.02,-137.20 -0.73,-140.42 366.17 80
2 09/08/2019 06:00:29 -0.01,-137.20 0.39,-135.44 201.04 80
3 09/09/2019 18:19:21 0.01,-137.20 0.66,-140.02 322.61 80
4 09/10/2019 18:01:23 0.01,-137.19 -0.46,-135.05 244.37 80
5 09/12/2019 06:20:24 -0.00,-137.19 -0.58,-139.67 283.33 80
6 09/13/2019 05:57:06 0.00,-137.18 0.55,-134.69 283.42 80
7 09/14/2019 18:15:59 -0.00,-137.17 0.45,-139.29 240.95 80
8 09/15/2019 17:57:59 -0.00,-137.16 -0.61,-134.30 325.65 80
9 09/17/2019 06:17:02 0.00,-137.15 -0.36,-138.93 202.71 80
10 09/18/2019 05:53:42 0.01,-137.14 0.71,-133.94 363.40 80
11 09/19/2019 18:12:35 -0.01,-137.11 0.29,-138.54 162.39 80
12 09/20/2019 17:54:36 -0.01,-137.09 -0.77,-133.55 403.21 80




NCC Satellite Simultaneous Nadir Overpasses (SNOs) Prediction Service
